• In Hungary
  • List of Countries
  • For 7 days
  • Water Temperature
  • Satellite Maps
  • Weather Map
  • News
  • Weather Widgets
  • user-avatar
    Login

    Hourly Weather Anzio

    Today, 21 September, Friday

    Time Temperature Precipitation Wind Pressure Humidity
    00:00 +23°C° 0.8 mm 4 mps 756 mmHg 73%
    01:00 +23°C° 0.8 mm 4 mps 756 mmHg 73%
    02:00 +23°C° 0.3 mm 4 mps 756 mmHg 73%
    03:00 +24°C° 0.3 mm 3 mps 756 mmHg 72%
    04:00 +24°C° 0.3 mm 3 mps 755 mmHg 72%
    05:00 +24°C° 0.2 mm 3 mps 755 mmHg 70%
    06:00 +24°C° 0.2 mm 3 mps 755 mmHg 69%
    07:00 +25°C° 0 mm 4 mps 756 mmHg 65%
    08:00 +27°C° 0.3 mm 3 mps 756 mmHg 60%
    09:00 +28°C° 0.3 mm 3 mps 756 mmHg 54%
    10:00 +30°C° 0.3 mm 3 mps 756 mmHg 48%
    11:00 +30°C° 0.1 mm 4 mps 756 mmHg 48%
    12:00 +30°C° 0.1 mm 4 mps 756 mmHg 48%
    13:00 +32°C° 0.1 mm 4 mps 756 mmHg 49%
    14:00 +30°C° 0.1 mm 4 mps 755 mmHg 51%
    15:00 +30°C° 0.1 mm 4 mps 755 mmHg 53%
    16:00 +29°C° 0.1 mm 3 mps 755 mmHg 55%
    17:00 +28°C° 0 mm 3 mps 755 mmHg 60%
    18:00 +27°C° 0 mm 2 mps 755 mmHg 65%
    19:00 +26°C° 0 mm 2 mps 756 mmHg 69%
    20:00 +26°C° 0.1 mm 2 mps 756 mmHg 70%
    21:00 +25°C° 0.1 mm 2 mps 756 mmHg 71%
    22:00 +25°C° 0.1 mm 2 mps 757 mmHg 73%
    23:00 +25°C° 0 mm 2 mps 757 mmHg 73%

    Tomorrow, 22 September, Saturday

    Time Temperature Precipitation Wind Pressure Humidity
    00:00 +24°C° 0 mm 2 mps 757 mmHg 73%
    01:00 +24°C° 0 mm 2 mps 757 mmHg 73%
    02:00 +24°C° 0 mm 1 mps 757 mmHg 73%
    03:00 +24°C° 0 mm 1 mps 757 mmHg 73%
    04:00 +23°C° 0 mm 1 mps 757 mmHg 73%
    05:00 +24°C° 0 mm 1 mps 757 mmHg 72%
    06:00 +24°C° 0 mm 1 mps 757 mmHg 70%
    07:00 +25°C° 0 mm 1 mps 757 mmHg 68%
    08:00 +26°C° 0 mm 1 mps 757 mmHg 62%
    09:00 +28°C° 0 mm 1 mps 758 mmHg 56%
    10:00 +30°C° 0 mm 1 mps 758 mmHg 50%
    11:00 +31°C° 0 mm 1 mps 758 mmHg 48%
    12:00 +31°C° 0 mm 2 mps 758 mmHg 47%
    13:00 +33°C° 0 mm 3 mps 758 mmHg 45%
    14:00 +31°C° 0 mm 3 mps 758 mmHg 47%
    15:00 +31°C° 0 mm 3 mps 757 mmHg 49%
    16:00 +30°C° 0 mm 3 mps 757 mmHg 51%
    17:00 +29°C° 0 mm 3 mps 757 mmHg 58%
    18:00 +27°C° 0 mm 2 mps 758 mmHg 65%
    19:00 +26°C° 0 mm 2 mps 758 mmHg 71%
    20:00 +26°C° 0 mm 2 mps 758 mmHg 73%
    21:00 +25°C° 0 mm 1 mps 759 mmHg 74%
    22:00 +25°C° 0 mm 1 mps 759 mmHg 76%
    23:00 +25°C° 0 mm 1 mps 759 mmHg 76%

    Day after tomorrow, 23 September, Sunday

    Time Temperature Precipitation Wind Pressure Humidity
    00:00 +24°C° 0 mm 1 mps 759 mmHg 77%
    01:00 +24°C° 0 mm 1 mps 759 mmHg 77%
    02:00 +24°C° 0 mm 1 mps 759 mmHg 77%
    03:00 +24°C° 0 mm 1 mps 759 mmHg 77%
    04:00 +24°C° 0 mm 1 mps 759 mmHg 77%
    05:00 +24°C° 0 mm 1 mps 759 mmHg 75%
    06:00 +24°C° 0 mm 1 mps 759 mmHg 73%
    07:00 +25°C° 0 mm 1 mps 759 mmHg 71%
    08:00 +26°C° 0 mm 1 mps 759 mmHg 65%
    09:00 +28°C° 0 mm 1 mps 760 mmHg 59%
    10:00 +30°C° 0 mm 1 mps 760 mmHg 53%
    11:00 +30°C° 0 mm 2 mps 760 mmHg 52%
    12:00 +31°C° 0 mm 2 mps 760 mmHg 51%
    13:00 +31°C° 0 mm 3 mps 760 mmHg 50%
    14:00 +31°C° 0 mm 3 mps 759 mmHg 53%
    15:00 +30°C° 0 mm 3 mps 759 mmHg 56%
    16:00 +30°C° 0 mm 3 mps 759 mmHg 59%
    17:00 +28°C° 0 mm 3 mps 759 mmHg 66%
    18:00 +27°C° 0 mm 2 mps 759 mmHg 73%
    19:00 +26°C° 0 mm 2 mps 759 mmHg 81%
    20:00 +25°C° 0 mm 2 mps 759 mmHg 83%
    21:00 +25°C° 0 mm 2 mps 759 mmHg 85%
    22:00 +25°C° 0 mm 1 mps 759 mmHg 86%
    23:00 +24°C° 0 mm 2 mps 759 mmHg 87%

    24 September, Monday

    Time Temperature Precipitation Wind Pressure Humidity
    00:00 +24°C° 0 mm 2 mps 759 mmHg 88%
    01:00 +24°C° 0 mm 2 mps 758 mmHg 88%
    02:00 +24°C° 0 mm 2 mps 758 mmHg 88%
    03:00 +24°C° 0 mm 2 mps 758 mmHg 89%
    04:00 +24°C° 0 mm 2 mps 757 mmHg 89%
    05:00 +24°C° 0 mm 2 mps 757 mmHg 88%
    06:00 +24°C° 0 mm 2 mps 757 mmHg 86%
    07:00 +24°C° 0 mm 2 mps 757 mmHg 85%
    08:00 +26°C° 0.1 mm 3 mps 757 mmHg 78%
    09:00 +27°C° 0.1 mm 3 mps 757 mmHg 71%
    10:00 +29°C° 0.1 mm 3 mps 757 mmHg 64%
    11:00 +29°C° 0 mm 3 mps 757 mmHg 63%
    12:00 +29°C° 0 mm 3 mps 756 mmHg 62%
    13:00 +30°C° 0 mm 3 mps 756 mmHg 60%
    14:00 +30°C° 0 mm 3 mps 756 mmHg 62%
    15:00 +29°C° 0 mm 3 mps 755 mmHg 64%
    16:00 +29°C° 0 mm 3 mps 755 mmHg 66%
    17:00 +28°C° 0 mm 3 mps 755 mmHg 71%
    18:00 +27°C° 0 mm 3 mps 755 mmHg 77%
    19:00 +26°C° 0 mm 2 mps 755 mmHg 83%
    20:00 +25°C° 0 mm 2 mps 756 mmHg 84%
    21:00 +25°C° 0 mm 2 mps 756 mmHg 86%
    22:00 +25°C° 0 mm 2 mps 757 mmHg 88%
    23:00 +24°C° 0.1 mm 2 mps 757 mmHg 88%

    25 September, Tuesday

    Time Temperature Precipitation Wind Pressure Humidity
    00:00 +24°C° 0.1 mm 2 mps 757 mmHg 89%
    01:00 +24°C° 0.1 mm 2 mps 758 mmHg 89%
    02:00 +24°C° 0.2 mm 3 mps 758 mmHg 85%
    03:00 +22°C° 0.2 mm 3 mps 758 mmHg 81%
    04:00 +22°C° 0.2 mm 4 mps 758 mmHg 78%
    05:00 +22°C° 0.1 mm 4 mps 759 mmHg 73%
    06:00 +22°C° 0.1 mm 5 mps 759 mmHg 69%
    07:00 +21°C° 0.1 mm 5 mps 760 mmHg 64%
    08:00 +22°C° 0.1 mm 5 mps 760 mmHg 56%
    09:00 +23°C° 0.1 mm 5 mps 761 mmHg 49%
    10:00 +25°C° 0.1 mm 5 mps 761 mmHg 41%
    11:00 +26°C° 0 mm 4 mps 761 mmHg 38%
    12:00 +27°C° 0 mm 4 mps 761 mmHg 36%
    13:00 +27°C° 0 mm 4 mps 762 mmHg 33%
    14:00 +27°C° 0.2 mm 4 mps 762 mmHg 35%
    15:00 +26°C° 0.2 mm 3 mps 762 mmHg 37%
    16:00 +25°C° 0.2 mm 3 mps 762 mmHg 39%
    17:00 +24°C° 0.1 mm 3 mps 762 mmHg 41%
    18:00 +22°C° 0.1 mm 3 mps 763 mmHg 42%
    19:00 +20°C° 0.1 mm 3 mps 764 mmHg 44%
    20:00 +19°C° 0 mm 3 mps 764 mmHg 44%
    21:00 +18°C° 0 mm 4 mps 764 mmHg 45%
    22:00 +16°C° 0 mm 5 mps 765 mmHg 45%
    23:00 +16°C° 0 mm 5 mps 765 mmHg 46%

    26 September, Wednesday

    Time Temperature Precipitation Wind Pressure Humidity
    00:00 +15°C° 0 mm 5 mps 765 mmHg 46%
    01:00 +14°C° 0 mm 5 mps 765 mmHg 47%
    02:00 +14°C° 0 mm 5 mps 766 mmHg 50%
    03:00 +14°C° 0 mm 5 mps 766 mmHg 53%
    04:00 +13°C° 0 mm 5 mps 766 mmHg 56%
    05:00 +14°C° 0 mm 5 mps 766 mmHg 56%
    06:00 +14°C° 0 mm 4 mps 766 mmHg 56%
    07:00 +14°C° 0 mm 4 mps 767 mmHg 56%
    08:00 +17°C° 0 mm 3 mps 767 mmHg 47%
    09:00 +19°C° 0 mm 3 mps 767 mmHg 39%
    10:00 +23°C° 0 mm 2 mps 767 mmHg 31%
    11:00 +24°C° 0 mm 2 mps 767 mmHg 29%
    12:00 +25°C° 0 mm 2 mps 767 mmHg 27%
    13:00 +27°C° 0 mm 1 mps 767 mmHg 25%
    14:00 +26°C° 0 mm 2 mps 766 mmHg 27%
    15:00 +26°C° 0 mm 3 mps 766 mmHg 29%
    16:00 +26°C° 0 mm 3 mps 766 mmHg 31%
    17:00 +24°C° 0 mm 3 mps 766 mmHg 36%
    18:00 +21°C° 0 mm 3 mps 766 mmHg 42%
    19:00 +20°C° 0 mm 2 mps 766 mmHg 47%
    20:00 +19°C° 0 mm 2 mps 766 mmHg 48%
    21:00 +19°C° 0 mm 2 mps 766 mmHg 49%
    22:00 +19°C° 0 mm 2 mps 767 mmHg 50%
    23:00 +19°C° 0 mm 1 mps 766 mmHg 49%
    Show more